User: anonymous   Login
Location: Los Gatos B&B
(42.6926°N, 77.0646°W)
Time: 16:46:39
(UTC-04:00)
Language:

SL-16 R/B - Orbit

View from above orbital plane
View from above orbital plane
View from above satellite
View from above satellite

Ground track
Ground track

The orbit data is extracted from the following two-line orbital elements,

1 28353U 04021B   16211.88878776 +.00000049 +00000-0 +50426-4 0  9992
2 28353 071.0000 034.3682 0006562 313.1103 046.9470 14.14185200626581
Epoch (UTC): 29 July 2016 21:19:51
Eccentricity: 0.0006562
inclination: 71.0000°
perigee height: 840 km
apogee height: 850 km
right ascension of ascending node: 34.3682°
argument of perigee: 313.1103°
revolutions per day: 14.14185200
mean anomaly at epoch: 46.9470°
orbit number at epoch: 62658

The dashed part of the orbit path shows where the satellite is in the earth's shadow,  

DLR